Location: Borea
(45.6167°N, 23.0167°E)
Time: 19:29:52
(UTC+00:00)

Cosmos 1980 Rocket - Visible Passes

Search period start: 01 October 2023 00:00
Search period end: 11 October 2023 00:00
Orbit: 827 x 851 km, 71.0° (Epoch: 01 October)

Date Brightness Start Highest point End Pass type
(mag) Time Alt. Az. Time Alt. Az. Time Alt. Az.
04 Oct 5.2 21:26:19 10° N 21:26:20 10° N 21:26:20 10° N visible
05 Oct 5.1 21:10:31 10° N 21:10:37 10° N 21:10:37 10° N visible
06 Oct 5.1 20:54:43 10° N 20:54:55 11° N 20:54:55 11° N visible
07 Oct 5.0 20:38:56 10° N 20:39:15 11° N 20:39:15 11° N visible
08 Oct 4.9 20:23:09 10° N 20:23:36 12° N 20:23:36 12° N visible
09 Oct 4.8 20:07:22 10° N 20:07:57 12° N 20:07:57 12° N visible
10 Oct 4.8 19:51:35 10° N 19:52:20 13° N 19:52:20 13° N visible
